Overview Statistics Trail Chart Weather Telemetry Raw packets
 

This is the latest recevied weather packets stored in our database for station/object KN6WGU. If no packets are shown the sender has not sent any weather packets the latest 10 day(s).

<< 90 91 92 93 94 95 96 >>
Time Temp. Humidity Pressure Rain* Wind** Luminosity Snow
1787945029 25.56° C 58% 1014.8 hPa 0 mm - 585 W/m² -
1787944726 25.56° C 54% 1015 hPa 0 mm - 594 W/m² -
1787944422 25.56° C 56% 1015.1 hPa 0 mm - 605 W/m² -
1787944117 26.11° C 56% 1014.9 hPa 0 mm - 612 W/m² -
1787943812 26.11° C 56% 1015.1 hPa 0 mm - 618 W/m² -
1787943507 25° C 55% 1015.2 hPa 0 mm - 625 W/m² -
1787943203 25° C 53% 1014.8 hPa 0 mm - 630 W/m² -
1787942902 25.56° C 53% 1015.1 hPa 0 mm - 636 W/m² -
1787942598 25.56° C 58% 1015.2 hPa 0 mm - 640 W/m² -
1787942298 25.56° C 56% 1015.2 hPa 0 mm - 646 W/m² -
1787941998 25° C 60% 1015.2 hPa 0 mm - 649 W/m² -
1787941694 25.56° C 53% 1015 hPa 0 mm - 654 W/m² -
1787941392 25.56° C 55% 1015 hPa 0 mm - 659 W/m² -
1787941092 25.56° C 61% 1015.1 hPa 0 mm - 661 W/m² -
1787940788 25° C 63% 1015.1 hPa 0 mm - 663 W/m² -
1787940484 25° C 58% 1015.1 hPa 0 mm - 668 W/m² -
1787940179 25° C 62% 1015.1 hPa 0 mm - 669 W/m² -
1787939878 24.44° C 58% 1015.1 hPa 0 mm - 671 W/m² -
1787939573 23.89° C 60% 1015 hPa 0 mm - 174 W/m² -
1787939268 23.89° C 61% 1015.1 hPa 0 mm - 373 W/m² -
1787938962 23.89° C 61% 1014.9 hPa 0 mm - 47 W/m² -
1787938661 23.33° C 63% 1014.9 hPa 0 mm - 72 W/m² -
1787938358 23.89° C 60% 1014.9 hPa 0 mm - 128 W/m² -
1787938058 23.33° C 55% 1015 hPa 0 mm - 129 W/m² -
1787937753 23.33° C 62% 1015 hPa 0 mm - 165 W/m² -

* Rain latest hour (hover to see other rain measurements)
** Current wind speed in m/s (hover to see current wind gust speed)